This is the latest recevied weather packets stored in our database for station/object OK2ZA-6. If no packets are shown the sender has not sent any weather packets the latest 10 day(s).
| Time | Temp. | Humidity | Pressure | Rain* | Wind** | Luminosity | Snow |
|---|---|---|---|---|---|---|---|
| 1777954204 | 11.67° C | 58% | 1009.1 hPa | 0 mm | - | - | - |
| 1777953603 | 11.67° C | 58% | 1009.2 hPa | 0 mm | - | - | - |
| 1777953003 | 12.22° C | 58% | 1009.3 hPa | 0 mm | - | - | - |
| 1777952404 | 12.22° C | 57% | 1009.3 hPa | 0 mm | - | - | - |
| 1777951804 | 12.22° C | 57% | 1009.3 hPa | 0 mm | - | - | - |
| 1777951204 | 12.22° C | 57% | 1009.3 hPa | 0 mm | - | - | - |
| 1777950603 | 12.78° C | 57% | 1009.3 hPa | 0 mm | - | - | - |
| 1777950004 | 12.78° C | 57% | 1009.5 hPa | 0 mm | - | - | - |
| 1777949404 | 12.78° C | 57% | 1009.6 hPa | 0 mm | - | - | - |
| 1777948804 | 12.78° C | 56% | 1009.7 hPa | 0 mm | - | - | - |
| 1777948203 | 13.33° C | 55% | 1009.9 hPa | 0 mm | - | - | - |
| 1777947604 | 13.33° C | 54% | 1009.9 hPa | 0 mm | - | - | - |
| 1777947004 | 13.89° C | 54% | 1009.9 hPa | 0 mm | - | - | - |
| 1777946404 | 13.89° C | 53% | 1010 hPa | 0 mm | - | - | - |
| 1777945803 | 14.44° C | 53% | 1010 hPa | 0 mm | - | - | - |
| 1777945204 | 14.44° C | 53% | 1009.9 hPa | 0 mm | - | - | - |
| 1777944604 | 14.44° C | 53% | 1009.9 hPa | 0 mm | - | - | - |
| 1777944004 | 14.44° C | 53% | 1009.9 hPa | 0 mm | - | - | - |
| 1777943404 | 14.44° C | 53% | 1010 hPa | 0 mm | - | - | - |
| 1777942804 | 14.44° C | 52% | 1010.1 hPa | 0 mm | - | - | - |
| 1777942204 | 14.44° C | 52% | 1010.2 hPa | 0 mm | - | - | - |
| 1777941604 | 15° C | 52% | 1010.2 hPa | 0 mm | - | - | - |
| 1777941004 | 14.44° C | 52% | 1010.3 hPa | 0 mm | - | - | - |
| 1777940404 | 14.44° C | 52% | 1010.4 hPa | 0 mm | - | - | - |
| 1777939804 | 14.44° C | 51% | 1010.5 hPa | 0 mm | - | - | - |
* Rain latest hour (hover to see other rain measurements)
** Current wind speed in m/s (hover to see current wind gust speed)